• In Netherlands
  • List of Countries
  • For 7 days
  • Water Temperature
  • Satellite Maps
  • Weather Map
  • Weather Widgets
  • user-avatar
    Login

    Hourly Weather Zamoste

    Today, 14 November, Wednesday

    Time Temperature Precipitation Wind Pressure Humidity
    00:00 -4°C° 0.1 mm 8 mps 750 mmHg 62%
    01:00 -4°C° 0.1 mm 8 mps 749 mmHg 64%
    02:00 -4°C° 0.1 mm 7 mps 749 mmHg 67%
    03:00 -4°C° 1 mm 7 mps 748 mmHg 72%
    04:00 -4°C° 1 mm 7 mps 747 mmHg 78%
    05:00 -5°C° 1 mm 6 mps 747 mmHg 84%
    06:00 -5°C° 1.1 mm 6 mps 746 mmHg 86%
    07:00 -5°C° 1.1 mm 6 mps 746 mmHg 88%
    08:00 -5°C° 1.1 mm 6 mps 746 mmHg 90%
    09:00 -5°C° 1 mm 6 mps 746 mmHg 91%
    10:00 -5°C° 1 mm 6 mps 746 mmHg 92%
    11:00 -5°C° 1 mm 5 mps 745 mmHg 93%
    12:00 -5°C° 0.6 mm 5 mps 745 mmHg 94%
    13:00 -5°C° 0.6 mm 5 mps 746 mmHg 94%
    14:00 -4°C° 0.6 mm 4 mps 746 mmHg 94%
    15:00 -4°C° 0.3 mm 3 mps 746 mmHg 94%
    16:00 -4°C° 0.3 mm 3 mps 746 mmHg 95%
    17:00 -3°C° 0.3 mm 2 mps 746 mmHg 95%
    18:00 -3°C° 0.3 mm 2 mps 747 mmHg 96%
    19:00 -3°C° 0.3 mm 2 mps 747 mmHg 96%
    20:00 -1°C° 0.3 mm 1 mps 747 mmHg 96%
    21:00 -1°C° 0.2 mm 1 mps 748 mmHg 96%
    22:00 -1°C° 0.2 mm 1 mps 748 mmHg 96%
    23:00 -2°C° 0.2 mm 1 mps 748 mmHg 96%

    Tomorrow, 15 November, Thursday

    Time Temperature Precipitation Wind Pressure Humidity
    00:00 -2°C° 0.1 mm 1 mps 749 mmHg 96%
    01:00 -2°C° 0.1 mm 1 mps 749 mmHg 96%
    02:00 -2°C° 0.1 mm 1 mps 750 mmHg 96%
    03:00 -2°C° 0 mm 1 mps 750 mmHg 96%
    04:00 -3°C° 0 mm 1 mps 750 mmHg 96%
    05:00 -3°C° 0 mm 1 mps 751 mmHg 95%
    06:00 -3°C° 0 mm 1 mps 751 mmHg 95%
    07:00 -3°C° 0 mm 1 mps 752 mmHg 95%
    08:00 -3°C° 0 mm 1 mps 753 mmHg 95%
    09:00 -2°C° 0 mm 1 mps 753 mmHg 94%
    10:00 -1°C° 0 mm 1 mps 753 mmHg 93%
    11:00 0°C° 0 mm 1 mps 754 mmHg 92%
    12:00 0°C° 0 mm 1 mps 754 mmHg 92%
    13:00 0°C° 0 mm 1 mps 754 mmHg 93%
    14:00 0°C° 0 mm 1 mps 755 mmHg 93%
    15:00 0°C° 0 mm 1 mps 755 mmHg 94%
    16:00 -1°C° 0 mm 1 mps 755 mmHg 95%
    17:00 -2°C° 0 mm 1 mps 756 mmHg 95%
    18:00 -2°C° 0 mm 1 mps 756 mmHg 95%
    19:00 -2°C° 0 mm 1 mps 756 mmHg 95%
    20:00 -2°C° 0 mm 1 mps 757 mmHg 95%
    21:00 -1°C° 0 mm 1 mps 757 mmHg 96%
    22:00 -1°C° 0 mm 1 mps 757 mmHg 96%
    23:00 -1°C° 0 mm 1 mps 758 mmHg 96%

    Day after tomorrow, 16 November, Friday

    Time Temperature Precipitation Wind Pressure Humidity
    00:00 -1°C° 0 mm 1 mps 758 mmHg 96%
    01:00 -1°C° 0 mm 1 mps 758 mmHg 97%
    02:00 0°C° 0 mm 1 mps 759 mmHg 97%
    03:00 0°C° 0 mm 1 mps 759 mmHg 97%
    04:00 0°C° 0 mm 1 mps 759 mmHg 97%
    05:00 0°C° 0 mm 1 mps 760 mmHg 97%
    06:00 -2°C° 0 mm 2 mps 760 mmHg 96%
    07:00 -2°C° 0 mm 2 mps 760 mmHg 96%
    08:00 -1°C° 0 mm 2 mps 761 mmHg 96%
    09:00 -1°C° 0 mm 2 mps 761 mmHg 96%
    10:00 +1°C° 0 mm 1 mps 761 mmHg 96%
    11:00 +1°C° 0 mm 1 mps 762 mmHg 96%
    12:00 +1°C° 0 mm 1 mps 762 mmHg 95%
    13:00 +1°C° 0 mm 1 mps 762 mmHg 95%
    14:00 +1°C° 0 mm 1 mps 762 mmHg 95%
    15:00 0°C° 0 mm 1 mps 762 mmHg 94%
    16:00 -1°C° 0 mm 1 mps 762 mmHg 93%
    17:00 -2°C° 0 mm 1 mps 762 mmHg 92%
    18:00 -2°C° 0 mm 1 mps 762 mmHg 91%
    19:00 -2°C° 0 mm 1 mps 762 mmHg 90%
    20:00 -2°C° 0 mm 1 mps 762 mmHg 90%
    21:00 -3°C° 0 mm 1 mps 762 mmHg 89%
    22:00 -3°C° 0 mm 1 mps 762 mmHg 88%
    23:00 -3°C° 0 mm 1 mps 762 mmHg 87%

    17 November, Saturday

    Time Temperature Precipitation Wind Pressure Humidity
    00:00 -4°C° 0 mm 0 mps 762 mmHg 86%
    01:00 -4°C° 0 mm 0 mps 762 mmHg 86%
    02:00 -4°C° 0 mm 0 mps 762 mmHg 85%
    03:00 -4°C° 0 mm 0 mps 762 mmHg 85%
    04:00 -3°C° 0 mm 1 mps 762 mmHg 85%
    05:00 -3°C° 0 mm 1 mps 762 mmHg 85%
    06:00 -3°C° 0 mm 1 mps 762 mmHg 85%
    07:00 -3°C° 0 mm 1 mps 762 mmHg 86%
    08:00 -3°C° 0 mm 1 mps 761 mmHg 86%
    09:00 -2°C° 0 mm 1 mps 761 mmHg 87%
    10:00 -3°C° 0 mm 2 mps 761 mmHg 87%
    11:00 -2°C° 0 mm 2 mps 760 mmHg 88%
    12:00 -1°C° 0 mm 2 mps 760 mmHg 90%
    13:00 -1°C° 0 mm 2 mps 760 mmHg 91%
    14:00 -1°C° 0 mm 2 mps 759 mmHg 93%
    15:00 -1°C° 0 mm 3 mps 759 mmHg 93%
    16:00 -1°C° 0 mm 3 mps 758 mmHg 93%
    17:00 -1°C° 0 mm 3 mps 758 mmHg 93%
    18:00 -1°C° 0 mm 3 mps 757 mmHg 94%
    19:00 -1°C° 0 mm 3 mps 756 mmHg 94%
    20:00 -1°C° 0 mm 3 mps 756 mmHg 95%
    21:00 -1°C° 0 mm 3 mps 755 mmHg 96%
    22:00 0°C° 0 mm 3 mps 755 mmHg 97%
    23:00 0°C° 0 mm 3 mps 754 mmHg 97%

    18 November, Sunday

    Time Temperature Precipitation Wind Pressure Humidity
    00:00 0°C° 0 mm 3 mps 753 mmHg 98%
    01:00 0°C° 0 mm 3 mps 753 mmHg 98%
    02:00 0°C° 0 mm 3 mps 752 mmHg 98%
    03:00 -1°C° 0 mm 4 mps 751 mmHg 98%
    04:00 0°C° 0 mm 4 mps 750 mmHg 98%
    05:00 0°C° 0 mm 4 mps 750 mmHg 98%
    06:00 -1°C° 0.1 mm 4 mps 749 mmHg 97%
    07:00 -1°C° 0.1 mm 4 mps 749 mmHg 97%
    08:00 -1°C° 0.1 mm 4 mps 748 mmHg 97%
    09:00 -1°C° 0 mm 4 mps 748 mmHg 97%
    10:00 -1°C° 0 mm 4 mps 748 mmHg 97%
    11:00 -1°C° 0 mm 4 mps 748 mmHg 97%
    12:00 0°C° 0.1 mm 4 mps 748 mmHg 97%
    13:00 0°C° 0.1 mm 4 mps 748 mmHg 97%
    14:00 0°C° 0.1 mm 5 mps 747 mmHg 97%
    15:00 0°C° 0.1 mm 5 mps 747 mmHg 95%
    16:00 0°C° 0.1 mm 5 mps 747 mmHg 94%
    17:00 0°C° 0.1 mm 5 mps 747 mmHg 92%
    18:00 -1°C° 0.1 mm 5 mps 747 mmHg 91%
    19:00 -1°C° 0.1 mm 5 mps 747 mmHg 90%
    20:00 -1°C° 0.1 mm 5 mps 747 mmHg 89%
    21:00 -2°C° 0.2 mm 6 mps 747 mmHg 89%
    22:00 -2°C° 0.2 mm 6 mps 747 mmHg 89%
    23:00 -2°C° 0.2 mm 6 mps 747 mmHg 89%

    19 November, Monday

    Time Temperature Precipitation Wind Pressure Humidity
    00:00 -2°C° 0.1 mm 6 mps 747 mmHg 88%
    01:00 -2°C° 0.1 mm 7 mps 747 mmHg 88%
    02:00 -2°C° 0.1 mm 7 mps 747 mmHg 88%
    03:00 -2°C° 0.1 mm 7 mps 747 mmHg 88%
    04:00 -2°C° 0.1 mm 7 mps 747 mmHg 88%
    05:00 -2°C° 0.1 mm 7 mps 748 mmHg 88%
    06:00 -2°C° 0.1 mm 7 mps 748 mmHg 88%
    07:00 -2°C° 0.1 mm 7 mps 748 mmHg 88%
    08:00 -2°C° 0.1 mm 6 mps 748 mmHg 89%
    09:00 -2°C° 0.1 mm 6 mps 749 mmHg 89%
    10:00 -2°C° 0.1 mm 6 mps 749 mmHg 89%
    11:00 -2°C° 0.1 mm 6 mps 750 mmHg 89%
    12:00 -1°C° 0.1 mm 5 mps 750 mmHg 89%
    13:00 -1°C° 0.1 mm 5 mps 750 mmHg 88%
    14:00 -1°C° 0.1 mm 5 mps 750 mmHg 88%
    15:00 -1°C° 0.1 mm 5 mps 750 mmHg 88%
    16:00 -1°C° 0.1 mm 5 mps 750 mmHg 88%
    17:00 -1°C° 0.1 mm 5 mps 750 mmHg 88%
    18:00 -1°C° 0.1 mm 5 mps 751 mmHg 88%
    19:00 -3°C° 0.1 mm 6 mps 751 mmHg 87%
    20:00 -3°C° 0.1 mm 6 mps 751 mmHg 87%
    21:00 -4°C° 0 mm 5 mps 751 mmHg 86%
    22:00 -4°C° 0 mm 5 mps 752 mmHg 86%
    23:00 -5°C° 0 mm 5 mps 752 mmHg 86%
    Show more